Torna al catalogo

CZ-6A DEB

AttivoPO
NORAD 61405·DEBRIS·🇨🇳 China

Lanciato Aug 6, 2024 da Taiyuan Satellite Launch Center

Loading…

Prossimi Passaggi (prossime 24 ore)

TLE

AggiornatoSource: Space-Track

Epoca: Sep 14, 2026, 09:33 UTC

1 61405U 24140XW  26257.39830755  .00004070  00000-0  93271-3 0  9995
2 61405  88.8839 249.5882 0043101 312.2042  47.5512 14.54877901106370

Traccia CZ-6A DEB in tempo reale con AllMySat

Download on the App Store